Airfield :
LOGIN :

Register | Disclaimer

   EN    FR    IT 

 










Legend :    VFR   Marginal VFR   IFR   Intensive IFR   Very Intensive IFR
Visi :
Ceiling :
>= 8 km
>= 3000ft
5 to 8 km
1000 to 3000 ft
1500m to 5 km
500 to 1000 ft
800 to 1500m
200 to 500 ft
< 800m
< 200 ft
Symbols :   Thunderstorms  Fog  Heavy snow  Heavy precipitations  Wind > 20 kt
SIGMETs :     Misc.  Thunderstorms  Icing  Turbulence  Mountain Waves  Volcanic Ashes






- Airport Elevation : 36 ft
- IATA code : GJL


DAAV - Jijel Ferhat Abbas

CURRENT METAR :
  • 211700Z 32003KT CAVOK 23/08 Q1016

EXPIRED METARs :
  • 211600Z 34004KT 300V020 9999 FEW020 23/10 Q1017
  • 211500Z 36005KT 320V040 9999 FEW020 23/10 Q1016
  • 211400Z 33007KT 300V010 9999 FEW020 24/10 Q1016
  • 211300Z 35005KT 310V040 9999 FEW020 24/10 Q1016

TAF TAF DAAV
Valid from the 21 at 12:00 until the 22 at 12:00 UTC


211100Z 2112/2212 36006KT CAVOK



MET'MAP, your aeronautical weather chart ! - Copyright ORBIFLY December 2007 - Disclaimer

ORBIFLY MET'MAP TEAM :

Programming & Development : Alexandra Zaïnal
Original concept : Baudouin d'Aumeries
Technical & hardware support : Manuel Goepfert
Assistance : Marc-Olivier Méhu




SOURCES & CREDITS :

   NOAA